Hourly Weather Barlad

Today, 18 April, Sunday

Time Temperature Precipitation Wind Pressure Humidity
00:00 +9°C° 0 mm 1 mps 751 mmHg 58%
01:00 +8°C° 0 mm 1 mps 751 mmHg 60%
02:00 +7°C° 0 mm 1 mps 751 mmHg 64%
03:00 +6°C° 0 mm 0 mps 751 mmHg 64%
04:00 +6°C° 0 mm 0 mps 751 mmHg 64%
05:00 +6°C° 0 mm 0 mps 751 mmHg 65%
06:00 +7°C° 0 mm 0 mps 751 mmHg 62%
07:00 +9°C° 0 mm 1 mps 751 mmHg 58%
08:00 +10°C° 0 mm 1 mps 751 mmHg 55%
09:00 +11°C° 0 mm 1 mps 751 mmHg 52%
10:00 +12°C° 0 mm 2 mps 751 mmHg 49%
11:00 +13°C° 0 mm 2 mps 751 mmHg 46%
12:00 +14°C° 0 mm 2 mps 750 mmHg 44%
13:00 +14°C° 0 mm 3 mps 750 mmHg 42%
14:00 +14°C° 0 mm 3 mps 750 mmHg 40%
15:00 +13°C° 0.2 mm 3 mps 750 mmHg 47%
16:00 +13°C° 0.2 mm 2 mps 750 mmHg 54%
17:00 +12°C° 0.2 mm 2 mps 750 mmHg 61%
18:00 +10°C° 0.3 mm 2 mps 751 mmHg 67%
19:00 +10°C° 0.3 mm 2 mps 751 mmHg 74%
20:00 +10°C° 0.3 mm 1 mps 751 mmHg 80%
21:00 +10°C° 0 mm 1 mps 751 mmHg 81%
22:00 +10°C° 0 mm 1 mps 751 mmHg 81%
23:00 +10°C° 0 mm 1 mps 751 mmHg 82%

Tomorrow, 19 April, Monday

Time Temperature Precipitation Wind Pressure Humidity
00:00 +10°C° 0 mm 1 mps 751 mmHg 82%
01:00 +10°C° 0 mm 1 mps 751 mmHg 83%
02:00 +10°C° 0 mm 1 mps 751 mmHg 84%
03:00 +9°C° 0 mm 1 mps 750 mmHg 84%
04:00 +9°C° 0 mm 1 mps 750 mmHg 84%
05:00 +8°C° 0 mm 0 mps 750 mmHg 84%
06:00 +10°C° 0 mm 1 mps 750 mmHg 82%
07:00 +10°C° 0 mm 1 mps 750 mmHg 80%
08:00 +10°C° 0 mm 1 mps 750 mmHg 78%
09:00 +11°C° 0 mm 1 mps 750 mmHg 76%
10:00 +11°C° 0 mm 1 mps 750 mmHg 73%
11:00 +11°C° 0 mm 1 mps 750 mmHg 71%
12:00 +12°C° 0 mm 2 mps 749 mmHg 68%
13:00 +12°C° 0 mm 2 mps 749 mmHg 66%
14:00 +13°C° 0 mm 2 mps 749 mmHg 63%
15:00 +12°C° 0 mm 3 mps 748 mmHg 65%
16:00 +12°C° 0 mm 3 mps 748 mmHg 66%
17:00 +12°C° 0 mm 3 mps 747 mmHg 67%
18:00 +11°C° 0.1 mm 3 mps 747 mmHg 71%
19:00 +10°C° 0.1 mm 3 mps 747 mmHg 75%
20:00 +10°C° 0.1 mm 3 mps 747 mmHg 79%
21:00 +10°C° 0.3 mm 3 mps 746 mmHg 82%
22:00 +9°C° 0.3 mm 3 mps 746 mmHg 84%
23:00 +9°C° 0.3 mm 3 mps 745 mmHg 86%

Day after tomorrow, 20 April, Tuesday

Time Temperature Precipitation Wind Pressure Humidity
00:00 +8°C° 0.6 mm 4 mps 745 mmHg 88%
01:00 +8°C° 0.6 mm 4 mps 744 mmHg 89%
02:00 +8°C° 0.6 mm 5 mps 744 mmHg 91%
03:00 +8°C° 0.6 mm 5 mps 744 mmHg 90%
04:00 +8°C° 0.6 mm 5 mps 743 mmHg 90%
05:00 +8°C° 0.6 mm 5 mps 743 mmHg 89%
06:00 +8°C° 0.4 mm 6 mps 743 mmHg 86%
07:00 +8°C° 0.4 mm 6 mps 744 mmHg 84%
08:00 +7°C° 0.4 mm 6 mps 744 mmHg 81%
09:00 +9°C° 0 mm 6 mps 744 mmHg 74%
10:00 +10°C° 0 mm 7 mps 744 mmHg 66%
11:00 +11°C° 0 mm 7 mps 744 mmHg 59%
12:00 +11°C° 0.1 mm 7 mps 744 mmHg 56%
13:00 +12°C° 0.1 mm 7 mps 745 mmHg 52%
14:00 +12°C° 0.1 mm 7 mps 745 mmHg 49%
15:00 +13°C° 0 mm 6 mps 745 mmHg 50%
16:00 +13°C° 0 mm 5 mps 745 mmHg 50%
17:00 +13°C° 0 mm 5 mps 745 mmHg 50%
18:00 +12°C° 0 mm 4 mps 746 mmHg 55%
19:00 +11°C° 0 mm 3 mps 746 mmHg 59%
20:00 +10°C° 0 mm 2 mps 747 mmHg 63%
21:00 +9°C° 0 mm 2 mps 747 mmHg 67%
22:00 +9°C° 0 mm 2 mps 747 mmHg 71%
23:00 +8°C° 0 mm 2 mps 747 mmHg 75%

21 April, Wednesday

Time Temperature Precipitation Wind Pressure Humidity
00:00 +8°C° 0 mm 2 mps 748 mmHg 77%
01:00 +7°C° 0 mm 2 mps 748 mmHg 80%
02:00 +8°C° 0 mm 1 mps 748 mmHg 82%
03:00 +8°C° 0 mm 1 mps 748 mmHg 83%
04:00 +8°C° 0 mm 1 mps 748 mmHg 84%
05:00 +8°C° 0 mm 1 mps 748 mmHg 85%
06:00 +9°C° 0 mm 1 mps 749 mmHg 80%
07:00 +10°C° 0 mm 1 mps 749 mmHg 76%
08:00 +11°C° 0 mm 1 mps 749 mmHg 71%
09:00 +13°C° 0.1 mm 1 mps 749 mmHg 65%
10:00 +14°C° 0.1 mm 1 mps 749 mmHg 59%
11:00 +15°C° 0.1 mm 1 mps 749 mmHg 53%
12:00 +16°C° 0.3 mm 1 mps 749 mmHg 51%
13:00 +16°C° 0.3 mm 1 mps 749 mmHg 48%
14:00 +17°C° 0.3 mm 2 mps 749 mmHg 46%
15:00 +16°C° 0.1 mm 2 mps 749 mmHg 48%
16:00 +16°C° 0.1 mm 2 mps 749 mmHg 51%
17:00 +16°C° 0.1 mm 2 mps 749 mmHg 53%
18:00 +15°C° 0.1 mm 2 mps 749 mmHg 58%
19:00 +14°C° 0.1 mm 2 mps 749 mmHg 63%
20:00 +12°C° 0.1 mm 2 mps 750 mmHg 67%
21:00 +12°C° 0 mm 2 mps 750 mmHg 69%
22:00 +11°C° 0 mm 1 mps 750 mmHg 71%
23:00 +11°C° 0 mm 1 mps 750 mmHg 74%

22 April, Thursday

Time Temperature Precipitation Wind Pressure Humidity
00:00 +10°C° 0 mm 1 mps 750 mmHg 75%
01:00 +10°C° 0 mm 1 mps 750 mmHg 76%
02:00 +9°C° 0 mm 1 mps 750 mmHg 77%
03:00 +9°C° 0 mm 1 mps 750 mmHg 78%
04:00 +9°C° 0 mm 1 mps 750 mmHg 79%
05:00 +8°C° 0 mm 1 mps 750 mmHg 79%
06:00 +10°C° 0 mm 1 mps 751 mmHg 74%
07:00 +11°C° 0 mm 1 mps 751 mmHg 68%
08:00 +13°C° 0 mm 1 mps 751 mmHg 63%
09:00 +14°C° 0 mm 2 mps 751 mmHg 57%
10:00 +16°C° 0 mm 2 mps 751 mmHg 52%
11:00 +17°C° 0 mm 2 mps 751 mmHg 46%
12:00 +18°C° 0 mm 2 mps 751 mmHg 43%
13:00 +19°C° 0 mm 3 mps 751 mmHg 40%
14:00 +19°C° 0 mm 4 mps 751 mmHg 38%
15:00 +19°C° 0 mm 4 mps 750 mmHg 39%
16:00 +19°C° 0 mm 4 mps 750 mmHg 40%
17:00 +19°C° 0 mm 4 mps 750 mmHg 42%
18:00 +17°C° 0 mm 3 mps 750 mmHg 48%
19:00 +16°C° 0 mm 3 mps 750 mmHg 54%
20:00 +14°C° 0 mm 2 mps 751 mmHg 61%
21:00 +13°C° 0 mm 2 mps 751 mmHg 62%
22:00 +13°C° 0 mm 2 mps 751 mmHg 63%
23:00 +12°C° 0 mm 2 mps 751 mmHg 65%

23 April, Friday

Time Temperature Precipitation Wind Pressure Humidity
00:00 +12°C° 0 mm 2 mps 750 mmHg 65%
01:00 +12°C° 0 mm 2 mps 750 mmHg 66%
02:00 +10°C° 0 mm 2 mps 750 mmHg 67%
03:00 +10°C° 0 mm 2 mps 750 mmHg 70%
04:00 +9°C° 0 mm 2 mps 751 mmHg 74%
05:00 +9°C° 0 mm 2 mps 751 mmHg 78%
06:00 +9°C° 0 mm 2 mps 751 mmHg 77%
07:00 +10°C° 0 mm 3 mps 751 mmHg 76%
08:00 +10°C° 0 mm 4 mps 752 mmHg 76%
09:00 +9°C° 0 mm 5 mps 752 mmHg 73%
10:00 +9°C° 0 mm 5 mps 752 mmHg 70%
11:00 +9°C° 0 mm 5 mps 753 mmHg 67%
12:00 +10°C° 0 mm 5 mps 752 mmHg 61%
13:00 +12°C° 0 mm 4 mps 752 mmHg 54%
14:00 +13°C° 0 mm 3 mps 752 mmHg 48%
15:00 +13°C° 0 mm 4 mps 752 mmHg 50%
16:00 +11°C° 0 mm 6 mps 752 mmHg 52%
17:00 +11°C° 0 mm 7 mps 752 mmHg 55%
18:00 +9°C° 0.1 mm 7 mps 753 mmHg 63%
19:00 +6°C° 0.1 mm 7 mps 754 mmHg 72%
20:00 +4°C° 0.1 mm 6 mps 755 mmHg 81%
21:00 +3°C° 0 mm 6 mps 755 mmHg 76%
22:00 +3°C° 0 mm 5 mps 755 mmHg 71%
23:00 +3°C° 0 mm 5 mps 756 mmHg 67%
Show more